[TLELIST] Archives

 

[TLELIST] Current TLEs

July 6th 2025 PDT

HST 1 20580U 90037B 25186.62641787 .00005110 00000-0 18791-3 0 9993 2 20580 28.4686 279.9154 0001721 304.5187 55.5245 15.25487684735503 ISS (ZARYA) 1 25544U 98067A 25187.21521352 .00007482 00000-0 13705-3 0 9994 2 25544 51.6341 212.7627 0002517 339.7243 20.3646 15.50395869518113 CXO 1 25867U 99040B 25187.94942826 .00000511 00000-0 00000-0 0 9994 2 25867 49.8968 128.8299 8389429 309.7726 0.3708 0.37803286 16013 ...Continue Reading

[TLELIST] Current TLEs

July 5th 2025 PDT

HST 1 20580U 90037B 25185.51425175 .00005005 00000-0 18394-3 0 9993 2 20580 28.4685 287.4552 0001700 289.3861 70.6550 15.25476147735334 ISS (ZARYA) 1 25544U 98067A 25186.18389497 .00006732 00000-0 12417-3 0 9997 2 25544 51.6345 217.8755 0002490 335.5645 24.5226 15.50380546517952 CXO 1 25867U 99040B 25187.94942826 .00000511 00000-0 00000-0 0 9994 2 25867 49.8968 128.8299 8389429 309.7726 0.3708 0.37803286 16013 ...Continue Reading

[TLELIST] Current TLEs

July 5th 2025 PDT

HST 1 20580U 90037B 25185.51425175 .00005005 00000-0 18394-3 0 9993 2 20580 28.4685 287.4552 0001700 289.3861 70.6550 15.25476147735334 ISS (ZARYA) 1 25544U 98067A 25186.18389497 .00006732 00000-0 12417-3 0 9997 2 25544 51.6345 217.8755 0002490 335.5645 24.5226 15.50380546517952 CXO 1 25867U 99040B 25187.94942826 .00000511 00000-0 00000-0 0 9994 2 25867 49.8968 128.8299 8389429 309.7726 0.3708 0.37803286 16013 ...Continue Reading

[TLELIST] Current TLEs

July 4th 2025 PDT

HST 1 20580U 90037B 25184.66376620 .00004961 00000-0 18230-3 0 9997 2 20580 28.4685 293.2213 0001704 277.9163 82.1238 15.25467891735208 ISS (ZARYA) 1 25544U 98067A 25185.15256655 .00005556 00000-0 10394-3 0 9997 2 25544 51.6344 222.9877 0002427 330.6237 29.4615 15.50365120517795 CXO 1 25867U 99040B 25187.94879861 .00000511 00000-0 00000-0 0 9992 2 25867 49.8968 128.8299 8389427 309.7726 0.2851 0.37803341 16011 ...Continue Reading

[TLELIST] Current TLEs

July 3rd 2025 PDT

HST 1 20580U 90037B 25183.55158605 .00005037 00000-0 18527-3 0 9999 2 20580 28.4686 300.7623 0001721 262.8803 97.1596 15.25457604735036 ISS (ZARYA) 1 25544U 98067A 25184.44352307 .00005261 00000-0 98866-4 0 9993 2 25544 51.6345 226.5029 0002404 327.7147 32.3695 15.50355829517681 CXO 1 25867U 99040B 25185.30516719 .00000413 00000-0 00000+0 0 9990 2 25867 49.8723 128.9033 8393697 309.7755 0.3417 0.37806887 27168 ...Continue Reading

[TLELIST] Current TLEs

July 2nd 2025 PDT

HST 1 20580U 90037B 25182.63566737 .00005059 00000-0 18616-3 0 9999 2 20580 28.4687 306.9722 0001749 250.6918 109.3488 15.25449028734897 ISS (ZARYA) 1 25544U 98067A 25183.17152840 .00005361 00000-0 10070-3 0 9993 2 25544 51.6357 232.8024 0002162 321.8485 134.2034 15.50326686517486 CXO 1 25867U 99040B 25185.30516719 .00000413 00000-0 00000+0 0 9990 2 25867 49.8723 128.9033 8393697 309.7755 0.3417 0.37806887 27168 ...Continue Reading

[TLELIST] Current TLEs

July 1st 2025 PDT

HST 1 20580U 90037B 25181.65432016 .00004297 00000-0 15696-3 0 9990 2 20580 28.4688 313.6252 0001800 237.5948 122.4473 15.25438442734748 ISS (ZARYA) 1 25544U 98067A 25182.18744301 .00005176 00000-0 97537-4 0 9990 2 25544 51.6345 237.6869 0002331 315.1210 44.9590 15.50314091517338 CXO 1 25867U 99040B 25182.66035926 .00000377 00000-0 00000-0 0 9992 2 25867 49.8474 128.9801 8399593 309.7738 0.2684 0.37807753 15992 ...Continue Reading

[TLELIST] Current TLEs

July 1st 2025 PDT

HST 1 20580U 90037B 25181.65432016 .00004297 00000-0 15696-3 0 9990 2 20580 28.4688 313.6252 0001800 237.5948 122.4473 15.25438442734748 ISS (ZARYA) 1 25544U 98067A 25182.18744301 .00005176 00000-0 97537-4 0 9990 2 25544 51.6345 237.6869 0002331 315.1210 44.9590 15.50314091517338 CXO 1 25867U 99040B 25182.66035926 .00000377 00000-0 00000-0 0 9992 2 25867 49.8474 128.9801 8399593 309.7738 0.2684 0.37807753 15992 ...Continue Reading

[TLELIST] Current TLEs

June 30th 2025 PDT

HST 1 20580U 90037B 25181.06550892 .00004120 00000-0 15020-3 0 9994 2 20580 28.4689 317.6170 0001824 230.7154 129.3279 15.25433042734912 ISS (ZARYA) 1 25544U 98067A 25181.15607184 .00004733 00000-0 89907-4 0 9993 2 25544 51.6344 242.7996 0002295 311.2029 48.8762 15.50302098517179 CXO 1 25867U 99040B 25182.66035926 .00000377 00000-0 00000-0 0 9992 2 25867 49.8474 128.9801 8399593 309.7738 0.2684 0.37807753 15992 ...Continue Reading

[TLELIST] Current TLEs

June 29th 2025 PDT

HST 1 20580U 90037B 25179.75703283 .00004124 00000-0 15038-3 0 9994 2 20580 28.4690 326.4877 0001899 214.1208 145.9265 15.25421852734458 ISS (ZARYA) 1 25544U 98067A 25180.40111667 .00006198 00000-0 11529-3 0 9997 2 25544 51.6371 246.5382 0002105 307.6057 156.2290 15.50296331517059 CXO 1 25867U 99040B 25182.66035926 .00000377 00000-0 00000-0 0 9992 2 25867 49.8474 128.9801 8399593 309.7738 0.2684 0.37807753 15992 ...Continue Reading
  • This mailing list is a public mailing list - anyone may join or leave, at any time.
  • This mailing list is announce-only.

International Space Station (ISS) / Hubble Space Telescope (HST) / Chandra X-Ray Observatory Orbital Data via EMAIL

Privacy Policy:

Private list